Dewpoint
55 55 55 56 58 60 61 62 62 62 62 62 63 63 63 62 61 57 54 54 54 59 56 50 52 49 44 34 36 34 32 30 30 28 27 33 34 34 40 41 43 46 41 50 60
55 56 56 57 58 60 61 61 61 61 62 62 62 62 62 62 57 55 58 57 59 60 49 51 52 52 44 34 35 34 33 31 29 27 26 31 33 33 36 39 42 46 51 57 61
55 56 56 57 57 59 61 61 61 61 61 61 61 61 61 59 54 53 60 59 60 59 50 49 53 51 47 34 34 35 33 33 27 27 25 27 33 32 34 34 35 40 49 58 60
54 56 57 57 57 59 60 61 60 60 60 60 60 60 61 56 46 52 61 61 61 55 48 46 47 45 37 36 35 34 35 32 28 28 26 26 29 31 33 32 36 36 48 56 59
54 55 57 57 57 59 60 60 60 60 60 60 59 60 57 52 49 50 61 60 55 54 47 45 46 45 40 36 38 35 33 28 27 28 26 27 26 27 28 32 35 41 51 55 58
54 55 56 56 57 58 59 59 60 60 60 60 59 59 51 47 51 51 54 56 54 53 47 45 45 48 42 36 35 35 34 28 28 31 28 28 27 27 27 28 35 45 50 54 57
54 55 55 56 57 58 59 59 58 58 59 60 59 56 51 48 51 51 50 54 55 52 49 46 44 46 43 39 35 34 33 31 31 35 36 32 34 26 27 34 35 42 47 52 56
54 54 55 56 57 58 58 58 58 57 57 58 59 56 49 51 51 51 51 53 54 53 49 48 43 44 44 39 34 34 33 32 34 33 33 34 36 32 30 30 32 36 41 48 53
53 54 55 55 56 57 57 57 57 58 57 57 55 54 47 55 50 52 52 51 49 48 48 46 44 45 45 40 37 36 34 32 33 36 34 34 35 37 30 29 31 31 37 43 49
53 54 55 55 55 56 56 56 55 56 55 54 53 48 50 47 51 50 50 50 48 48 47 46 44 42 45 42 37 36 34 34 33 35 37 35 35 37 33 30 30 29 32 40 45
53 54 55 55 55 56 54 52 48 48 50 45 42 45 48 47 51 49 49 48 48 47 44 44 39 39 41 41 39 38 36 34 35 34 36 36 36 38 38 38 35 30 29 33 42
53 54 54 55 55 55 51 46 45 44 42 46 44 46 48 50 47 48 48 45 46 42 42 43 40 37 39 42 41 40 38 36 36 34 36 36 36 37 38 39 39 35 33 30 34
53 53 54 54 54 53 48 45 45 47 42 40 45 44 46 49 45 46 47 47 44 41 40 37 37 38 37 38 39 39 39 36 35 35 35 35 35 36 38 39 40 40 39 34 30
53 53 52 52 48 47 45 48 49 50 37 32 43 42 49 47 45 48 47 45 44 40 40 37 35 38 37 36 38 37 40 38 36 37 36 36 34 36 37 37 39 40 40 39 34
52 52 52 50 40 43 43 48 49 48 23 36 39 47 46 44 45 45 48 46 42 39 41 38 35 37 39 37 39 39 40 40 39 37 36 35 33 34 34 34 36 35 39 41 37
52 52 52 48 46 43 44 48 48 32 24 36 43 43 43 43 44 46 47 48 44 39 38 38 41 37 37 39 41 39 38 37 37 37 33 36 33 32 31 34 35 35 34 39 36
51 51 49 46 42 48 49 46 31 25 35 33 37 40 40 40 40 42 41 41 38 36 36 38 40 40 40 36 40 39 38 33 32 32 31 29 34 32 34 35 35 35 35 35 37
51 51 47 44 45 48 48 36 21 30 31 36 37 39 37 39 39 40 39 38 41 37 34 34 32 39 41 39 36 38 36 28 23 24 23 30 29 30 34 34 34 35 33 30 33
50 48 46 46 47 49 40 27 25 28 34 33 35 36 35 39 38 39 38 38 39 35 32 31 34 40 40 38 38 37 35 34 28 26 27 25 27 28 31 30 29 27 30 34 30
45 42 41 45 47 46 35 26 31 33 35 36 33 36 34 35 36 37 37 39 37 35 32 31 33 37 38 39 38 37 36 33 35 30 25 21 25 25 29 28 27 28 28 26 28
39 35 40 45 47 39 29 27 27 29 34 33 35 33 35 35 36 36 37 39 35 34 32 31 33 33 38 37 36 36 35 35 33 32 26 23 20 25 23 11 18 20 20 19 20
42 33 43 47 34 35 31 25 27 24 33 34 33 37 37 36 35 36 35 35 36 35 32 33 32 32 34 34 38 36 34 33 29 29 29 28 25 17 15 17 20 18 20 23 25
37 36 43 43 30 30 28 24 28 28 33 32 34 38 39 35 33 35 35 35 37 36 33 33 33 27 29 34 36 35 35 34 30 32 29 28 23 24 24 21 19 19 20 26 28
39 30 37 38 38 29 29 28 29 32 33 34 34 33 38 35 35 34 34 37 38 35 38 35 32 29 26 29 35 34 35 35 32 30 28 28 24 20 21 20 19 21 30 28 28
40 34 34 29 32 32 29 29 29 32 35 35 34 34 37 33 35 35 33 36 36 37 33 31 32 28 27 28 33 35 35 35 33 31 28 28 27 28 28 28 28 30 32 29 27
34 33 34 34 34 30 32 31 29 30 34 34 33 35 37 33 34 34 33 35 36 37 33 32 31 27 30 29 32 33 33 35 35 34 32 31 29 29 29 30 29 30 30 29 26
37 36 38 33 34 31 31 32 32 35 36 34 34 35 37 33 33 34 35 35 36 37 36 31 32 34 29 29 28 29 31 34 34 34 33 30 31 32 31 30 30 29 30 31 28
Lifted_Index
4 4 4 3 2 1 -0 -1 -0 -0 0 1 1 1 1 2 3 3 3 3 4 4 4 3 2 1 2 3 4 4 3 3 4 5 5 5 6 6 6 5 4 4 4 2 2
4 4 3 3 2 1 -0 -1 -1 -0 0 1 1 1 1 2 2 3 3 3 4 4 4 3 2 1 2 3 4 4 3 3 5 5 6 6 6 6 6 5 5 4 3 2 1
4 4 3 3 3 1 0 -0 -1 -0 -0 1 1 1 1 2 2 3 3 3 3 4 5 4 3 2 2 2 4 4 3 4 5 6 6 6 6 6 6 6 5 5 3 2 1
4 4 3 3 3 2 1 0 -0 -0 -0 0 1 2 2 2 3 3 3 2 3 4 5 5 3 2 2 2 3 3 4 4 5 6 6 6 7 7 6 6 6 5 3 2 2
4 4 4 3 3 2 1 1 0 -0 -0 0 1 1 2 3 3 3 3 2 3 3 4 5 4 2 2 2 2 3 4 5 5 5 6 6 7 7 7 7 6 5 3 2 2
4 4 4 3 3 2 1 1 0 -0 -0 -0 0 1 2 3 3 3 3 2 3 3 4 4 3 2 2 2 2 3 4 4 5 5 5 6 6 7 7 7 6 4 3 2 2
3 3 3 3 2 1 1 1 0 -0 -1 -1 -1 0 1 2 3 2 2 2 2 2 3 4 3 2 2 2 3 3 4 4 4 4 4 5 5 6 7 7 6 5 3 2 2
3 3 3 2 2 1 1 0 0 -1 -1 -1 -1 -0 1 1 2 2 2 2 2 3 3 3 3 2 2 2 3 3 4 4 4 4 4 4 4 5 6 7 6 6 4 3 2
2 2 2 2 1 1 0 -0 -0 -1 -2 -2 -1 -1 0 1 1 1 1 1 2 3 3 3 3 3 2 3 3 4 4 4 4 4 4 4 3 3 5 6 7 6 5 4 3
2 2 1 1 1 0 -0 -0 -0 -1 -1 -1 -0 0 1 1 1 1 1 1 2 3 3 3 3 3 3 3 3 4 4 4 4 4 4 3 3 3 4 5 6 7 6 5 4
1 0 0 -0 -0 -1 -0 0 0 -0 -0 0 0 1 1 1 1 1 1 1 2 2 3 3 4 4 4 3 3 3 3 3 3 4 4 3 3 3 3 4 5 6 6 6 5
-0 -1 -1 -1 -1 -1 -1 -0 0 -0 -0 0 0 1 1 1 1 1 1 1 1 2 3 4 4 4 4 3 2 2 2 2 3 4 4 3 3 3 3 4 4 5 6 6 6
-1 -1 -1 -1 -1 -1 -1 -1 -1 -1 -0 -0 0 1 1 1 1 1 2 1 1 2 3 4 4 4 3 3 2 2 2 2 3 3 4 3 3 3 3 3 4 4 5 6 6
-1 -1 -1 -1 -1 -0 -1 -1 -1 -1 -0 0 0 1 1 1 1 1 2 1 1 2 2 3 4 4 3 3 3 2 2 2 3 3 4 4 4 3 3 3 3 3 3 5 6
-1 -1 -1 -0 -0 -0 -1 -1 -1 -1 -0 -0 0 0 0 1 1 1 1 2 1 2 2 3 3 3 3 3 3 3 2 2 2 3 3 4 4 4 4 3 3 2 3 3 4
-1 -1 -1 -0 -0 -0 -1 -1 -1 -1 -0 -0 -0 0 0 1 1 1 1 1 1 1 2 2 3 3 3 3 3 3 2 2 2 2 3 4 5 5 5 4 3 2 3 3 3
-1 -1 -1 -0 -0 -1 -1 -1 -0 0 0 0 -0 -0 0 1 1 1 1 1 1 1 1 2 2 3 3 3 3 3 3 2 2 1 2 4 5 5 5 4 3 3 3 3 3
-1 -1 -0 0 -0 -1 -1 -0 1 1 1 1 0 -0 -0 1 1 1 1 1 1 1 1 1 2 3 3 3 3 3 3 3 2 1 2 3 4 5 6 5 4 4 4 4 4
-0 0 1 0 -0 -1 -0 1 1 1 1 1 0 0 -0 0 1 1 1 1 1 1 1 1 2 3 3 3 4 4 3 3 3 2 2 3 4 5 6 6 5 5 5 5 4
1 2 2 1 0 -0 1 1 2 1 1 1 1 0 1 1 0 1 1 1 1 1 1 1 2 2 3 4 4 4 4 4 3 2 1 2 3 5 6 6 5 5 5 5 5
2 2 2 1 1 1 1 2 2 2 2 2 1 1 1 1 1 1 1 2 2 2 2 2 2 2 3 4 4 4 4 4 3 3 2 2 3 5 6 6 6 6 6 6 6
3 3 2 1 1 1 2 3 3 3 3 3 2 2 1 1 1 1 1 2 2 2 2 2 2 2 3 3 4 4 4 4 3 3 3 3 3 5 7 7 6 7 6 6 7
3 2 2 1 2 2 2 3 3 3 3 4 3 2 1 1 1 1 1 2 2 2 2 2 2 2 2 3 4 4 4 4 3 4 4 3 4 5 6 6 6 6 6 7 7
2 2 2 2 2 2 2 3 2 3 4 5 4 2 1 1 1 1 1 2 2 2 2 2 2 2 2 3 3 4 3 3 3 3 3 3 4 5 5 5 5 5 6 7 7
2 2 2 2 2 2 2 2 2 3 4 5 4 2 1 0 1 2 2 2 2 2 2 2 2 2 2 3 3 2 2 2 2 2 3 3 4 4 4 5 5 5 6 6 7
2 2 2 2 2 2 2 2 3 3 4 4 4 3 1 1 1 2 3 3 2 2 2 2 2 2 2 2 2 2 2 1 2 2 3 3 3 4 4 5 5 6 6 6 6
2 2 2 2 2 2 3 2 2 3 4 4 4 3 1 1 2 2 3 3 3 2 3 3 3 2 2 2 2 2 2 2 2 3 3 3 3 4 4 5 6 6 6 6 7